St. John's, Canada

6:53 PM NDT on April 27, 2017 (GMT -0230)
St. John's International

Weather History for CYYT - February, 2014

Change the Weather History Date:

Monday, February 10, 2014

  Actual Average Record
Temperature  
Mean Temperature 6 °F -  
Max Temperature 12 °F 31 °F 49 °F (2017)
Min Temperature 1 °F 18 °F 1 °F (2014)
Degree Days  
Heating Degree Days 58    
Moisture  
Dew Point 1 °F    
Average Humidity 76    
Maximum Humidity 85    
Minimum Humidity 61    
Precipitation  
Precipitation 0.00 in 0.17 in - ()
Sea Level Pressure  
Sea Level Pressure 29.90 in    
Wind  
Wind Speed 11 mph ()    
Max Wind Speed 18 mph    
Max Gust Speed 23 mph    
Visibility 14.7 miles    
Events Snow    
Averages and records for this station are not official NWS values.
T = Trace of Precipitation, MM = Missing Value Source: Averaged Metar Reports

Daily Weather History Graph

Daily Weather History Graph

Search for Another Location

Airport or City:

Trip Planner

Search our weather history database for the weather conditions in past years. The results will help you decide how hot, cold, wet, or windy it might be!

Date:

Astronomy

Feb. 10, 2014 Rise Set
Actual Time 7:14 AM NST 5:16 PM NST
Civil Twilight 6:42 AM NST 5:48 PM NST
Nautical Twilight 6:06 AM NST 6:24 PM NST
Astronomical Twilight 5:30 AM NST 7:00 PM NST
Moon 1:32 PM NST (2/10) 4:10 AM NST (2/10)
Length of Visible Light 11h 05m
Length of Day
10h 01m
Waxing Gibbous, 84% of the Moon is Illuminated
Feb 10
Waxing Gibbous
Feb 14
Full
Feb 22
Last Quarter
Mar 1
New
Mar 8
First Quarter

Hourly Weather History & Observations

Time (NST) Temp. Windchill Dew Point Humidity Pressure Visibility Wind Dir Wind Speed Gust Speed Precip Events Conditions
12:30 AM 6.8 °F -5.9 °F -0.4 °F 72% 29.94 in 15.0 mi NW 8.1 mph - N/A   Mostly Cloudy
1:30 AM 6.8 °F -7.8 °F 1.4 °F 79% 29.94 in 15.0 mi WNW 10.4 mph - N/A   Mostly Cloudy
2:30 AM 6 °F - -0 °F 64% 29.94 in 15 mi WNW 12.7 mph - -   Mostly Cloudy
2:30 AM 5.0 °F -12.3 °F -0.4 °F 78% 29.94 in 15.0 mi WNW 13.8 mph - N/A   Mostly Cloudy
3:30 AM 5.0 °F -12.3 °F -0.4 °F 78% 29.94 in 15.0 mi WNW 13.8 mph - N/A   Mostly Cloudy
4:30 AM 3.2 °F -14.6 °F -4.0 °F 72% 29.95 in 15.0 mi WNW 13.8 mph - N/A   Scattered Clouds
5:30 AM 1.4 °F -16.1 °F -4.0 °F 78% 29.96 in 15.0 mi West 12.7 mph - N/A   Partly Cloudy
6:30 AM 1.4 °F -16.1 °F -4.0 °F 78% 29.96 in 15.0 mi West 12.7 mph 18.4 mph N/A   Mostly Cloudy
7:30 AM 1.4 °F -14.5 °F -2.2 °F 85% 29.96 in 15.0 mi WNW 10.4 mph - N/A   Scattered Clouds
8:30 AM 4 °F - -2 °F 66% 29.95 in 15 mi WNW 15.0 mph - -   Scattered Clouds
8:30 AM 3.2 °F -15.9 °F -2.2 °F 78% 29.95 in 15.0 mi WNW 16.1 mph - N/A   Scattered Clouds
9:30 AM 5.0 °F -14.7 °F -0.4 °F 78% 29.95 in 15.0 mi West 18.4 mph - N/A Snow Light Snow Showers
10:30 AM 6.8 °F -11.3 °F 1.4 °F 79% 29.95 in 15.0 mi West 16.1 mph 23.0 mph N/A Snow Light Snow Showers
11:30 AM 6.8 °F -10.0 °F 1.4 °F 79% 29.94 in 15.0 mi West 13.8 mph - N/A Snow Light Snow Showers
11:42 AM 6.8 °F -10.0 °F 1.4 °F 79% 29.94 in 15.0 mi West 13.8 mph - N/A   Overcast
12:30 PM 8.6 °F -6.3 °F 1.4 °F 73% 29.91 in 15.0 mi West 11.5 mph 17.3 mph N/A   Overcast
1:30 PM 10.4 °F -6.6 °F 3.2 °F 73% 29.89 in 15.0 mi West 16.1 mph 21.9 mph N/A   Mostly Cloudy
2:30 PM 11 °F - 4 °F 61% 29.88 in 15 mi West 12.7 mph - -   Partly Cloudy
2:30 PM 12.2 °F -3.7 °F 3.2 °F 67% 29.88 in 15.0 mi West 15.0 mph - N/A   Mostly Cloudy
3:30 PM 12.2 °F -3.7 °F 1.4 °F 62% 29.88 in 15.0 mi West 15.0 mph - N/A   Mostly Cloudy
4:30 PM 12.2 °F -3.7 °F 1.4 °F 62% 29.86 in 15.0 mi West 15.0 mph - N/A   Mostly Cloudy
5:30 PM 8.6 °F -3.7 °F 1.4 °F 73% 29.86 in 15.0 mi West 8.1 mph - N/A   Mostly Cloudy
6:30 PM 8.6 °F 0.1 °F 1.4 °F 73% 29.85 in 15.0 mi SSW 4.6 mph - N/A   Mostly Cloudy
7:30 PM 6.8 °F -0.1 °F 1.4 °F 79% 29.85 in 15.0 mi West 3.5 mph - N/A   Partly Cloudy
8:30 PM 5 °F - 2 °F 82% 29.85 in 15 mi WSW 6.9 mph - -   Clear
8:30 PM 5.0 °F -5.6 °F 1.4 °F 85% 29.85 in 15.0 mi WSW 5.8 mph - N/A   Partly Cloudy
9:30 PM 6.8 °F -6.9 °F 3.2 °F 85% 29.84 in 15.0 mi WSW 9.2 mph - N/A   Mostly Cloudy
10:01 PM 6.8 °F -4.8 °F 3.2 °F 85% 29.84 in 12.0 mi WSW 6.9 mph - N/A Snow Light Snow
10:30 PM 8.6 °F -4.7 °F 5.0 °F 85% 29.84 in 8.0 mi WSW 9.2 mph - N/A Snow Light Snow
11:30 PM 10.4 °F -4.1 °F 6.8 °F 85% 29.83 in 15.0 mi West 11.5 mph - N/A   Mostly Cloudy